Location: Brighton Point
(40.6144°N, 111.7933°W)
Time: 17:07:34
(UTC+00:00)

ISS - Pass Details

Date: 11 March 2021
Orbit: 418 x 421 km, 51.6° (Epoch: 21 April)

Event Time Altitude Azimuth Distance (km) Brightness Sun altitude
Exits shadow 11:44:08 40° 41° (NE) 633 -2.5 -23.5°
Drops below altitude 10° 11:47:07 10° 102° (ESE) 1,493 -0.1 -22.9°
Sets 11:49:17 0° 110° (ESE) 2,354 0.9 -22.5°
